Content
SEND FEEDBACK

Daily
Averages
Monthly
Summary
Mexico

TIERRA NEGRA, QUINTANA ROO


Home > North America > Mexico > Quintana Roo
Elevation: 75 feet     Latitude: 18 48N     Longitude: 088 34W

WEATHER
 
SELECT A DAY
Number of Records: 125,669;   Date Range: 1/1/95 - 11/26/14
 
SHARE

PRINT THIS DATA

[ ← Previous Day ]
WEATHER ALMANAC - AUGUST 15, 2014
[ Next Day → ]
[ °C ]   °F
Weather ElementAverageHighLow
Temperature87.2 °F95 °F (1:00 pm)83 °F (3:50 am)
Dewpoint76.6 °F78.8 °F (12:49 pm)73 °F (12:50 pm)
Humidity68.8 %79 % (6:51 am)43 % (3:50 pm)
Barometer29.98 in30.03 in (9:50 am)29.91 in (6:45 pm)
Wind Speed11.2 mph19.6 mph (2:47 pm)
Weather ElementAverage
Visibility6.5 mi
Wind DirectionESE (98.3 °)

Weather ElementTotal
Precipitation---
Cooling Degree Days24 (Base 65)
Growing Degree Days39 (Base 50)
Averaged from 24 records on August 15, 2014
WEATHER CONDITIONS BREAKOUT
WIND DIRECTION BREAKOUT
WEATHER BY HOUR - AUGUST 15, 2014
[ °C ]   °F
Local TimeTemperatureDewpointHumidityBarometerVisibilityWind DirectionWind SpeedGust SpeedPrecipitationEventsConditions
12:50 AM85.0 °F78.0 °F75 %30.00 in5.0 miEast (90°)4.5 mphScattered Clouds
3:50 AM83.0 °F76.0 °F75 %29.97 in5.0 miEast (90°)4.5 mphScattered Clouds
6:50 AM83.0 °F77.0 °F79 %29.98 in6.0 miEast (90°)4.5 mphScattered Clouds
6:53 AM84.2 °F75.2 °F74 %29.97 in7.0 miEast (90°)9.2 mphMostly Cloudy
7:40 AM84.2 °F75.2 °F74 %29.98 in7.0 miEast (90°)11.5 mphMostly Cloudy
8:41 AM86.0 °F77.0 °F74 %29.99 in7.0 miEast (90°)8.1 mphMostly Cloudy
9:40 AM86.0 °F77.0 °F74 %30.02 in7.0 miEast (90°)17.3 mphScattered Clouds
9:50 AM90.0 °F73.0 °F48 %30.03 in6.0 miEast (100°)8.9 mphScattered Clouds
10:40 AM87.8 °F78.8 °F75 %30.01 in7.0 miEast (100°)16.1 mphScattered Clouds
11:41 AM87.8 °F78.8 °F75 %30.01 in7.0 miEast (100°)11.5 mphScattered Clouds
12:41 PM87.8 °F78.8 °F75 %30.01 in7.0 miEast (100°)17.3 mphScattered Clouds
12:50 PM94.0 °F74.0 °F44 %30.02 in6.0 miEast (100°)8.9 mphPartly Cloudy
1:40 PM87.8 °F78.8 °F75 %29.98 in7.0 miEast (100°)17.3 mphScattered Clouds
2:47 PM87.8 °F78.8 °F75 %29.95 in7.0 miEast (100°)19.6 mphOvercast
3:47 PM87.8 °F77.0 °F70 %29.94 in7.0 miEast (100°)17.3 mphOvercast
3:50 PM95.0 °F75.0 °F43 %29.95 in6.0 miESE (110°)6.7 mphScattered Clouds
4:41 PM89.6 °F77.0 °F66 %29.92 in7.0 miEast (100°)11.5 mphOvercast
5:42 PM87.8 °F77.0 °F70 %29.91 in7.0 miESE (120°)16.1 mphMostly Cloudy
6:46 PM87.8 °F77.0 °F70 %29.94 in7.0 miESE (120°)11.5 mphMostly Cloudy
6:50 PM89.0 °F75.0 °F54 %29.96 in6.0 miESE (110°)6.7 mph
7:40 PM86.0 °F77.0 °F74 %29.95 in7.0 miEast (100°)11.5 mphMostly Cloudy
8:46 PM86.0 °F77.0 °F74 %29.96 in7.0 miEast (90°)11.5 mphMostly Cloudy
9:43 PM84.2 °F75.2 °F74 %29.98 in7.0 miEast (90°)11.5 mphScattered Clouds
9:50 PM85.0 °F74.0 °F64 %29.99 in5.0 miEast (90°)4.5 mph
Hourly data recorded from MMCM, located miles away from Tierra Negra, Quintana Roo







STORIES FROM OUR PARTNERS